CZ-4C R/B, 59729

Orbit data source: Space-Track

CZ-4C R/B, 59729 is space debris in SSO originally from a launch on Sat, 11 May 2024 UTC launched from the Jiuquan Satellite Launch Center, China (JSC). Debris objects in space refer to the collection of defunct objects orbiting the Earth. Examples of debris include non-operational satellites, rocket bodies, and fragments generated from explosions, collisions, or faulty payload assembly.

Loading next visibility...
Identifier
59729, 2024-089B
Orbit
SSO
Country
Flag of CNCN / PRC
Related business
Manufacturer
SAST
Mission
Spacecraft
Bus & Motor
CZ-4 STAGE 3, Unknown motor
Mass
~1,000 kg wet, ~1,000 kg dry
Launch date (UTC)
2024-05-11 (2 years ago)
Launch vehicle
Unknown
Launch site
Jiuquan Satellite Launch Center, China (JSC)
Object type
Payload
Rocket body
Debris
Shape & HBR
Cyl, 2.5 m
Radar Cross Section
14.536 m², Large (>1 m²)

Expand to show TLE details & history
Last TLE update: 13 hours ago

TLE from 13 hours ago
0 CZ-4C R/B
1 59729U 24089B   26133.08676544  .00005283  00000-0  16253-3 0  9998
2 59729  97.7014 174.2524 0075583  10.0054 350.2669 15.31332884111287
Epoch: 2026-05-13T02:04Z
TLE epoch observation values (Epoch: 2026-05-13T02:04:56.534Z)
Latitude
-0.00008°
Longitude
-87.83498°
Altitude
423.903 km
Speed
7.685 km/s
True Right ascension
11h 37m 00s
True Declination
0° 00' 00"
Sunlit
Object was in full shadow at epoch
Visualization orbit readout
Latitude
Unknown
Longitude
Unknown
Altitude
Unknown
Speed
Unknown
Apparent Right ascension
Unknown
Apparent Declination
Unknown
Sunlit
N/A
Visualization observer readout
Local Sidereal Time
23:50:55
Azimuth
Unknown
Elevation
Unknown
Doppler factor
Unknown
Orbital elements
Apogee altitude
520.549 km
Perigee altitude
417.047 km
Semi-major axis
6,846.935 km
Eccentricity
0.00756
Inclination
97.7014°
RAAN
174.2524°
Arg. of periapsis
10.0054°
True anomaly
350.1191°
Mean anomaly
350.2669°
Eccentric anomaly
350.19314°
Mean motion
3.83088 °/min
Orbital period
93.97 mins
BSTAR
0.00016253
Loading maneuver chart data...
Computing Atmospheric mass density...
Loading historical data...
Loading historical data...
Loading historical data...
Loading historical data...
Loading historical data...
Loading historical data...
Loading historical data...
Other satellites on launch #89 in the year 2024 (2024-05-11 UTC)

Documentation

Showing up to 5 results
|